Back to catalog

STARLINK-34971

AliveCommunicationsSSO
NORAD 65256·PAYLOAD·🇺🇸 United States

Launched Aug 18, 2025 from Vandenberg Space Force Base

Loading…

Next Passes (next 24 hours)

TLE

FreshSource: CelesTrak SupGP

Epoch: Sep 14, 2026, 21:34 UTC

1 65256C 25179X   26257.89909722  .00000318  00000+0  98861-5 0  2571
2 65256  97.2832 297.2553 0001085  96.3558 171.1762 15.33438238    16

Track STARLINK-34971 in real time with AllMySat

Download on the App Store